Zurück zum Katalog

DELTA 1 DEB

AktivLEO
NORAD 10251·DEBRIS·🇺🇸 United States

Gestartet Jul 14, 1977 von Cape Canaveral Space Force Station

Loading…

Nächste Überflüge (nächste 24 Stunden)

TLE

AktuellSource: Space-Track

Epoche: Sep 14, 2026, 11:53 UTC

1 10251U 77065CC  26257.49574777  .00003498  00000-0  46111-3 0  9996
2 10251  28.9725  53.9975 0665846 164.0580 198.2061 13.85861165429669

Verfolge DELTA 1 DEB in Echtzeit mit AllMySat

Download on the App Store